Date,TemperatureHighF,TemperatureAvgF,TemperatureLowF,DewpointHighF,DewpointAvgF,DewpointLowF,HumidityHigh,HumidityAvg,HumidityLow,PressureMaxIn,PressureMinIn,WindSpeedMaxMPH,WindSpeedAvgMPH,GustSpeedMaxMPH,PrecipitationSumIn
2013-1-1,39,36,34,31,26,17,79,68,43,29.99,29.84,21,6,26,0.12
2013-1-2,34,32,27,27,18,11,74,57,41,30.07,29.87,16,5,25,0.00
2013-1-3,36,27,20,15,13,10,64,54,41,30.13,30.01,16,3,21,0.00
2013-1-4,32,29,26,16,13,12,55,52,48,30.19,30.07,24,9,35,0.00
2013-1-5,41,32,23,21,17,12,63,54,40,30.28,30.07,26,4,31,0.04
2013-1-6,39,36,32,23,21,19,61,54,50,30.07,29.90,22,7,26,0.13
2013-1-7,39,31,24,23,17,14,67,56,45,30.31,30.04,25,5,30,0.00
2013-1-8,46,29,17,26,17,9,74,62,42,30.28,30.19,11,1,15,0.04
2013-1-9,46,32,24,38,22,16,75,69,57,30.31,30.19,6,1,9,0.00
2013-1-19,47,37,27,27,21,18,76,55,39,30.22,29.96,22,4,27,0.04
2013-1-20,46,38,28,25,19,9,71,47,35,29.99,29.90,40,9,44,0.05
2013-1-21,40,30,22,16,9,-1,57,40,30,29.99,29.75,30,8,51,0.00
2013-1-22,22,14,10,0,-7,-10,40,37,35,30.07,29.87,46,12,51,0.00
2013-1-23,25,19,11,6,-3,-11,46,38,32,30.13,29.87,39,8,45,0.00
2013-1-24,24,18,9,10,1,-8,55,46,38,30.34,29.84,26,8,45,0.00
2013-1-25,27,18,9,24,5,-8,89,59,41,30.31,29.90,18,3,18,0.00
2013-1-26,32,26,24,23,13,10,84,57,46,30.28,29.90,35,10,54,0.00
2013-1-27,43,27,10,22,11,1,78,52,33,30.37,30.25,11,3,15,0.04
2013-1-28,59,43,31,46,34,16,86,71,45,30.25,30.04,26,3,26,0.25
2013-1-29,72,54,40,56,44,37,97,74,33,30.10,29.93,16,3,21,0.00
2013-1-30,66,53,37,58,48,34,98,87,61,29.93,29.34,42,5,42,1.78
2013-1-31,46,31,25,44,16,6,94,56,40,29.84,29.31,51,13,65,0.04